| time (UTC) | temp C | wind direction | speed KPH | gust KPH | rain 1hr cm | rain 24hr cm | rain mn cm | humidity % | barometer mb |
| 20260502151556 | 10 | 216 | 0.0 | 3.2 | 0.00 | 0.00 | 0.00 | 91 | 1017.7 |
| 20260502150125 | 10 | 238 | 0.0 | 3.2 | 0.00 | 0.00 | 0.00 | 91 | 1017.6 |
| 20260502123045 | 8 | 0 | 0.0 | 1.6 | 0.00 | 0.00 | 0.00 | 92 | 1017.2 |
| 20260502121552 | 8 | 0 | 0.0 | 0.0 | 0.00 | 0.00 | 0.00 | 92 | 1017.4 |
| 20260502120110 | 8 | 0 | 0.0 | 0.0 | 0.00 | 0.00 | 0.00 | 91 | 1017.3 |
| 20260502114556 | 8 | 0 | 0.0 | 0.0 | 0.00 | 0.00 | 0.00 | 91 | 1017.5 |
| 20260502113108 | 8 | 0 | 0.0 | 0.0 | 0.00 | 0.00 | 0.00 | 91 | 1017.3 |
| 20260502111549 | 8 | 0 | 0.0 | 1.6 | 0.00 | 0.00 | 0.00 | 91 | 1017.3 |
| 20260502110049 | 8 | 0 | 0.0 | 0.0 | 0.00 | 0.00 | 0.00 | 91 | 1017.2 |
| 20260502104547 | 8 | 0 | 0.0 | 0.0 | 0.00 | 0.00 | 0.00 | 91 | 1017.5 |
| 20260502103110 | 8 | 0 | 0.0 | 1.6 | 0.00 | 0.00 | 0.00 | 90 | 1018.0 |
| 20260502101553 | 8 | 0 | 0.0 | 3.2 | 0.00 | 0.00 | 0.00 | 91 | 1018.1 |
| 20260502100413 | 8 | 0 | 0.0 | 3.2 | 0.00 | 0.00 | 0.00 | 91 | 1017.7 |
| 20260502070047 | 10 | 0 | 0.0 | 0.0 | 0.00 | 0.00 | 0.00 | 87 | 1017.2 |
| 20260502064553 | 10 | 0 | 0.0 | 0.0 | 0.00 | 0.00 | 0.00 | 87 | 1017.3 |
| 20260502063055 | 10 | 0 | 0.0 | 0.0 | 0.00 | 0.00 | 0.00 | 86 | 1017.3 |
| 20260502061548 | 10 | 0 | 0.0 | 0.0 | 0.00 | 0.00 | 0.00 | 86 | 1017.3 |
| 20260502060050 | 11 | 0 | 0.0 | 0.0 | 0.00 | 0.00 | 0.00 | 85 | 1017.4 |
| 20260502054600 | 11 | 0 | 0.0 | 3.2 | 0.00 | 0.00 | 0.00 | 85 | 1017.3 |
| 20260502053050 | 11 | 0 | 0.0 | 6.4 | 0.00 | 0.00 | 0.00 | 84 | 1017.2 |
| 20260502051549 | 11 | 0 | 0.0 | 3.2 | 0.00 | 0.00 | 0.00 | 84 | 1017.3 |
| 20260502050052 | 12 | 0 | 0.0 | 3.2 | 0.00 | 0.00 | 0.00 | 83 | 1017.2 |
| 20260502044542 | 12 | 0 | 0.0 | 6.4 | 0.00 | 0.00 | 0.00 | 82 | 1017.1 |
| 20260502043058 | 12 | 0 | 1.6 | 6.4 | 0.00 | 0.00 | 0.00 | 81 | 1016.8 |
| 20260502041549 | 13 | 0 | 0.0 | 6.4 | 0.00 | 0.00 | 0.00 | 79 | 1016.7 |
| 20260502040051 | 13 | 234 | 1.6 | 4.8 | 0.00 | 0.00 | 0.00 | 77 | 1016.5 |
| 20260502034550 | 14 | 65 | 0.0 | 4.8 | 0.00 | 0.00 | 0.00 | 76 | 1016.3 |
| 20260502033051 | 15 | 102 | 0.0 | 6.4 | 0.00 | 0.00 | 0.00 | 75 | 1016.1 |
| 20260502031544 | 15 | 271 | 0.0 | 14.5 | 0.00 | 0.00 | 0.00 | 74 | 1015.8 |
| 20260502030048 | 15 | 255 | 1.6 | 14.5 | 0.00 | 0.00 | 0.00 | 72 | 1015.4 |
| 20260502024546 | 16 | 291 | 1.6 | 11.3 | 0.00 | 0.00 | 0.00 | 71 | 1015.1 |
| 20260502023059 | 16 | 0 | 0.0 | 6.4 | 0.00 | 0.00 | 0.00 | 70 | 1015.0 |
| 20260502021556 | 17 | 277 | 0.0 | 4.8 | 0.00 | 0.00 | 0.00 | 67 | 1014.9 |
| 20260502020050 | 18 | 277 | 0.0 | 6.4 | 0.00 | 0.00 | 0.00 | 66 | 1014.7 |
| 20260502014549 | 18 | 298 | 1.6 | 11.3 | 0.00 | 0.00 | 0.00 | 65 | 1014.7 |
| 20260502013054 | 19 | 288 | 1.6 | 11.3 | 0.00 | 0.00 | 0.00 | 63 | 1014.7 |
| 20260502011548 | 20 | 304 | 0.0 | 6.4 | 0.00 | 0.00 | 0.00 | 60 | 1014.6 |
| 20260502010058 | 21 | 0 | 0.0 | 11.3 | 0.00 | 0.00 | 0.00 | 61 | 1014.7 |
| 20260502004548 | 22 | 0 | 1.6 | 9.7 | 0.00 | 0.00 | 0.00 | 57 | 1014.6 |
| 20260502003051 | 22 | 303 | 1.6 | 14.5 | 0.00 | 0.00 | 0.00 | 58 | 1014.6 |
| 20260502001548 | 22 | 186 | 3.2 | 9.7 | 0.00 | 0.00 | 0.00 | 57 | 1014.6 |
| 20260502000048 | 23 | 178 | 1.6 | 8.0 | 0.00 | 0.00 | 0.00 | 54 | 1014.5 |
| 20260501234552 | 24 | 44 | 0.0 | 9.7 | 0.00 | 0.00 | 0.00 | 53 | 1014.4 |
| 20260501233053 | 24 | 238 | 4.8 | 16.1 | 0.00 | 0.00 | 0.00 | 52 | 1014.6 |
| 20260501231551 | 25 | 281 | 3.2 | 9.7 | 0.00 | 0.00 | 0.00 | 50 | 1014.7 |
| 20260501230049 | 24 | 336 | 3.2 | 11.3 | 0.00 | 0.00 | 0.00 | 50 | 1014.9 |
| 20260501224550 | 24 | 250 | 3.2 | 8.0 | 0.00 | 0.00 | 0.00 | 49 | 1015.0 |
| 20260501223056 | 23 | 63 | 3.2 | 12.9 | 0.00 | 0.00 | 0.00 | 51 | 1015.2 |
| 20260501221545 | 23 | 216 | 3.2 | 12.9 | 0.00 | 0.00 | 0.00 | 52 | 1015.3 |
| 20260501220055 | 23 | 5 | 3.2 | 9.7 | 0.00 | 0.00 | 0.00 | 53 | 1015.4 |
| 20260501214549 | 23 | 0 | 1.6 | 12.9 | 0.00 | 0.00 | 0.00 | 55 | 1015.7 |
| 20260501213058 | 22 | 38 | 3.2 | 9.7 | 0.00 | 0.00 | 0.00 | 54 | 1015.7 |
| 20260501211556 | 22 | 199 | 3.2 | 11.3 | 0.00 | 0.00 | 0.00 | 54 | 1015.9 |
| 20260501210047 | 22 | 231 | 1.6 | 8.0 | 0.00 | 0.00 | 0.00 | 53 | 1016.1 |
| 20260501204558 | 21 | 0 | 1.6 | 6.4 | 0.00 | 0.00 | 0.00 | 55 | 1016.1 |
| 20260501203100 | 20 | 51 | 1.6 | 6.4 | 0.00 | 0.00 | 0.00 | 53 | 1016.3 |
| 20260501201550 | 21 | 223 | 3.2 | 14.5 | 0.00 | 0.00 | 0.00 | 55 | 1016.4 |
| 20260501200048 | 21 | 316 | 3.2 | 9.7 | 0.00 | 0.00 | 0.00 | 56 | 1016.4 |
| 20260501194547 | 20 | 0 | 1.6 | 9.7 | 0.00 | 0.00 | 0.00 | 60 | 1016.6 |
| 20260501193053 | 20 | 312 | 3.2 | 6.4 | 0.00 | 0.00 | 0.00 | 61 | 1016.6 |
| 20260501191545 | 19 | 244 | 3.2 | 9.7 | 0.00 | 0.00 | 0.00 | 62 | 1016.8 |
| 20260501190044 | 19 | 26 | 1.6 | 8.0 | 0.00 | 0.00 | 0.00 | 63 | 1016.9 |
| 20260501184552 | 18 | 285 | 0.0 | 8.0 | 0.00 | 0.00 | 0.00 | 67 | 1016.9 |
| 20260501183053 | 17 | 246 | 3.2 | 9.7 | 0.00 | 0.00 | 0.00 | 70 | 1017.0 |
| 20260501181605 | 17 | 0 | 1.6 | 6.4 | 0.00 | 0.00 | 0.00 | 69 | 1017.0 |
| 20260501180100 | 17 | 254 | 1.6 | 6.4 | 0.00 | 0.00 | 0.00 | 70 | 1017.0 |
| 20260501174553 | 16 | 298 | 0.0 | 4.8 | 0.00 | 0.00 | 0.00 | 74 | 1017.1 |
| 20260501173052 | 16 | 305 | 1.6 | 4.8 | 0.00 | 0.00 | 0.00 | 74 | 1017.2 |
| 20260501171601 | 16 | 222 | 1.6 | 8.0 | 0.00 | 0.00 | 0.00 | 75 | 1017.3 |
| 20260501170055 | 15 | 0 | 1.6 | 8.0 | 0.00 | 0.00 | 0.00 | 77 | 1017.3 |
| 20260501164550 | 15 | 0 | 3.2 | 6.4 | 0.00 | 0.00 | 0.00 | 77 | 1017.3 |
| 20260501163048 | 14 | 312 | 3.2 | 8.0 | 0.00 | 0.00 | 0.00 | 79 | 1017.4 |
| 20260501161546 | 13 | 0 | 1.6 | 6.4 | 0.00 | 0.00 | 0.00 | 81 | 1017.6 |